TimeIST,TemperatureF,Dew PointF,Humidity,Sea Level PressureIn,VisibilityMPH,Wind Direction,Wind SpeedMPH,Gust SpeedMPH,PrecipitationIn,Events,Conditions,WindDirDegrees,DateUTC
2:30 AM,74,65,66,29.84,2,SE,4.6,,,,Haze,140,2013-01-04 21:00:00
6:10 AM,68.0,59.0,73,29.92,1.2,Calm,Calm,-,N/A,,Mist,0,2013-01-05 00:40:00
7:10 AM,66.2,60.8,83,29.92,1.2,Calm,Calm,-,N/A,,Mist,0,2013-01-05 01:40:00
8:10 AM,69.8,53.6,56,29.95,1.2,Calm,Calm,-,N/A,,Mist,0,2013-01-05 02:40:00
8:30 AM,75,66,66,29.88,2,South,2.3,,,,Haze,180,2013-01-05 03:00:00
11:10 AM,84.2,60.8,45,29.98,3.1,South,5.8,-,N/A,,Haze,180,2013-01-05 05:40:00
11:30 AM,87,58,27,29.81,6,,2.3,,,,,,2013-01-05 06:00:00
1:10 PM,93.2,51.8,24,29.89,3.7,Variable,2.3,-,N/A,,Unknown,0,2013-01-05 07:40:00
2:30 PM,91,57,22,29.70,6,South,3.5,,,,Partly Cloudy,180,2013-01-05 09:00:00
2:40 PM,95.0,51.8,23,29.86,3.7,SE,3.5,-,N/A,,Scattered Clouds,140,2013-01-05 09:10:00
3:10 PM,95.0,51.8,23,29.86,3.7,ESE,3.5,-,N/A,,Scattered Clouds,110,2013-01-05 09:40:00
4:10 PM,91.4,51.8,26,29.83,3.7,SE,3.5,-,N/A,,Scattered Clouds,140,2013-01-05 10:40:00
5:10 PM,91.4,50.0,24,29.83,3.7,Calm,Calm,-,N/A,,Scattered Clouds,0,2013-01-05 11:40:00
5:30 PM,89,58,25,29.69,6,South,5.8,,,,Scattered Clouds,180,2013-01-05 12:00:00
6:10 PM,86.0,55.4,35,29.86,3.7,ESE,5.8,-,N/A,,Scattered Clouds,110,2013-01-05 12:40:00
7:10 PM,82.4,55.4,39,29.89,3.7,ESE,5.8,-,N/A,,Scattered Clouds,110,2013-01-05 13:40:00
8:10 PM,80.6,57.2,45,29.92,3.7,SE,4.6,-,N/A,,Scattered Clouds,130,2013-01-05 14:40:00
8:30 PM,80,62,44,29.81,2,SE,4.6,,,,Haze,140,2013-01-05 15:00:00
9:10 PM,78.8,59.0,51,29.92,3.7,SE,5.8,-,N/A,,Scattered Clouds,130,2013-01-05 15:40:00
11:30 PM,76,65,61,29.83,2,SE,3.5,,,,Haze,140,2013-01-05 18:00:00